Regional Weather Roundup
Issued by NWS

Home | Current Version | Previous Version | Text Only | Print | Product List | Glossary Off
Versions: 1 2 3 4 5 6 7 8 9 10 11 12 13 14 15 16 17 18 19 20 21 22 23 24 25 26 27 28 29 30 31 32 33 34 35 36 37 38 39 40 41 42 43 44 45 46 47 48 49 50

817
ASUS43 KMKX 220011
RWRWI

WISCONSIN REGIONAL WEATHER ROUNDUP
NATIONAL WEATHER SERVICE MILWAUKEE/SULLIVAN WI
700 PM CDT FRI JUL 21 2017

NOTE: "FAIR" INDICATES FEW OR NO CLOUDS BELOW 12,000 FEET WITH NO
SIGNIFICANT WEATHER AND/OR OBSTRUCTIONS TO VISIBILITY.

WIZ001-002-006>008-014>016-023>028-220100-
NORTHWEST WISCONSIN

CITY           SKY/WX    TMP DP  RH WIND       PRES   REMARKS
SUPERIOR ARPT  NOT AVBL
ASHLAND        CLOUDY    70  63  78 N8        29.84F
6HR MIN TEMP:  69; 6HR MAX TEMP:  82;

HAYWARD        CLOUDY    77  66  68 S12       29.86F
6HR MIN TEMP:  77; 6HR MAX TEMP:  83;

SIREN          CLOUDY    75  67  76 CALM      29.86S
6HR MIN TEMP:  75; 6HR MAX TEMP:  83;

CUMBERLAND     CLOUDY    72  66  83 CALM      29.85F
RICE LAKE      CLOUDY    76  67  73 SE8       29.87F
6HR MIN TEMP:  74; 6HR MAX TEMP:  79;

CHETEK         CLOUDY    76  69  78 SE6       29.86F
6HR MIN TEMP:  74; 6HR MAX TEMP:  80;

LADYSMITH      PTSUNNY   77  66  68 S6        29.89F
6HR MIN TEMP:  76; 6HR MAX TEMP:  82;

EAU CLAIRE     CLOUDY    76  66  71 S10       29.84F
6HR MIN TEMP:  73; 6HR MAX TEMP:  78; 6HR PCP:  0.02;

MENOMONIE      MOSUNNY   78  67  68 SE6       29.84F HX  80
6HR MIN TEMP:  73; 6HR MAX TEMP:  79; 6HR PCP:  0.01;

NEW RICHMOND   MOSUNNY   79  65  64 S6        29.83F HX  80
6HR MIN TEMP:  71; 6HR MAX TEMP:  80; 6HR PCP:  0.12;

OSCEOLA        MOSUNNY   79  69  70 SE6       29.84F HX  81
6HR MIN TEMP:  73; 6HR MAX TEMP:  81;

$$

WIZ003>005-009-010-017-018-220100-
NORTH CENTRAL WISCONSIN

CITY           SKY/WX    TMP DP  RH WIND       PRES   REMARKS
MANITOWISH WTR PTSUNNY   80  63  56 S7        29.89S HX  81
6HR MIN TEMP:  79; 6HR MAX TEMP:  83;

ARBOR VITAE    MOSUNNY   77  66  68 S7        29.89F
WOODRUFF       MOSUNNY   77  66  68 S7        29.89F
RHINELANDER    CLOUDY    77  68  73 S6        29.91F
6HR MIN TEMP:  77; 6HR MAX TEMP:  84; 6HR PCP: TRACE;

EAGLE RIVER    MOSUNNY   78  60  53 S6        29.90F HX  80
6HR MIN TEMP:  78; 6HR MAX TEMP:  82;

LAND O LAKES   MOSUNNY   81  60  48 S5        29.91F HX  82
6HR MIN TEMP:  80; 6HR MAX TEMP:  84;

PHILLIPS       CLOUDY    76  67  75 SW7       29.88F
6HR MIN TEMP:  76; 6HR MAX TEMP:  81;

TOMAHAWK         N/A     76  66  71 CALM      29.90F
6HR MIN TEMP:  76; 6HR MAX TEMP:  82;

MEDFORD        PTSUNNY   73  66  76 S6        29.89F
6HR MIN TEMP:  73; 6HR MAX TEMP:  78;

MERRILL        CLOUDY    78  68  70 W7        29.90F HX  81
6HR MIN TEMP:  77; 6HR MAX TEMP:  81;

$$

WIZ029-030-035-036-043>047-220100-
CENTRAL WISCONSIN

CITY           SKY/WX    TMP DP  RH WIND       PRES   REMARKS
WAUSAU         CLOUDY    76  69  79 S10       29.87F
6HR MIN TEMP:  76; 6HR MAX TEMP:  80;

MOSINEE        HVY RAIN  73  70  88 SE14      29.90F
MARSHFIELD     CLOUDY    74  68  81 S7        29.88F
6HR MIN TEMP:  73; 6HR MAX TEMP:  76; 6HR PCP: TRACE;

STEVENS POINT  CLOUDY    71  70  95 SE6       29.90F
6HR MIN TEMP:  71; 6HR MAX TEMP:  78;

WAUPACA        PTSUNNY   76  60  57 SE5       29.90F
6HR MIN TEMP:  75; 6HR MAX TEMP:  80;

WAUTOMA        CLOUDY    72  69  90 VRB6      29.89F
6HR MIN TEMP:  72; 6HR MAX TEMP:  77; 6HR PCP:  0.09;

WISC RAPIDS    CLOUDY    74  70  87 SE5       29.89F
6HR MIN TEMP:  74; 6HR MAX TEMP:  77; 6HR PCP:  0.02;

CAMP DOUGLAS   CLOUDY    71  70  98 E6        29.86F
6HR MIN TEMP:  71; 6HR MAX TEMP:  73; 6HR PCP:  0.17;

$$

WIZ011>013-019>022-031-037>040-048>050-220100-
NORTHEAST WISCONSIN

CITY           SKY/WX    TMP DP  RH WIND       PRES   REMARKS
ANTIGO         CLOUDY    74  67  78 S8        29.92F
6HR MIN TEMP:  74; 6HR MAX TEMP:  80;

SHAWANO        CLOUDY    80  66  62 SW3       29.89F HX  81
6HR MIN TEMP:  79; 6HR MAX TEMP:  85;

OCONTO         CLOUDY    78  70  76 CALM      29.88F HX  80
6HR MIN TEMP:  78; 6HR MAX TEMP:  85;

STURGEON BAY     N/A     77  69  76 S6        29.88F
6HR MIN TEMP:  77; 6HR MAX TEMP:  84;

GREEN BAY      CLOUDY    76  67  73 S5        29.89F
6HR MIN TEMP:  76; 6HR MAX TEMP:  83; 6HR PCP: TRACE;

MANITOWOC      LGT RAIN  75  67  76 S10       29.91F
6HR MIN TEMP:  75; 6HR MAX TEMP:  82; 6HR PCP: TRACE;

APPLETON       CLOUDY    75  55  50 VRB5      29.90F
CLINTONVILLE   CLOUDY    77  63  61 S8        29.89F
OSHKOSH        CLOUDY    71  64  78 S8        29.90F
6HR MIN TEMP:  71; 6HR MAX TEMP:  81; 6HR PCP:  0.04;

$$

WIZ032>034-041-042-053>061-220100-
SOUTHWEST WISCONSIN

CITY           SKY/WX    TMP DP  RH WIND       PRES   REMARKS
LA CROSSE      CLOUDY    74  69  85 SE8       29.83F
6HR MIN TEMP:  74; 6HR MAX TEMP:  75; 6HR PCP:  0.12;

SPARTA         CLOUDY    68  67  96 CALM      29.86F
6HR MIN TEMP:  67; 6HR MAX TEMP:  69; 6HR PCP:  0.16;

VIROQUA        CLOUDY    69  69 100 SE9       29.87F
BOSCOBEL       LGT RAIN  72  70  93 CALM      29.87R
6HR MIN TEMP:  71; 6HR MAX TEMP:  74; 6HR PCP:  0.71;

PRAIRIE DU CHI RAIN      70  69  96 S7        29.85R
6HR MIN TEMP:  69; 6HR MAX TEMP:  71; 6HR PCP:  1.82;

PLATTEVILLE    CLOUDY    73  73 100 E13G21    29.83F
$$

WIZ056-057-062-063-064-067-068-220100-
SOUTH CENTRAL WISCONSIN

CITY           SKY/WX    TMP DP  RH WIND       PRES   REMARKS
REEDSBURG      RAIN      70  70 100 SE6       29.88F
6HR MIN TEMP:  70; 6HR MAX TEMP:  73; 6HR PCP:  0.89;

BARABOO/DELLS  CLOUDY    70  69  94 S8        29.89F VSB 1
6HR MIN TEMP:  70; 6HR MAX TEMP:  73; 6HR PCP:  0.75;

LONE ROCK      LGT RAIN  72  70  93 E7        29.87S
6HR MIN TEMP:  72; 6HR MAX TEMP:  74; 6HR PCP:  0.95;

MINERAL POINT  RAIN      72  72 100 NE8       29.87S
MADISON        CLOUDY    72  70  93 E10       29.86F
6HR MIN TEMP:  72; 6HR MAX TEMP:  76; 6HR PCP:  0.72;

MIDDLETON      CLOUDY    73  73 100 E7        29.87F
6HR MIN TEMP:  73; 6HR MAX TEMP:  79; 6HR PCP:  0.60;

WATERTOWN      LGT RAIN  67  67 100 E9        29.89F
6HR MIN TEMP:  67; 6HR MAX TEMP:  81; 6HR PCP:  0.01;

MONROE         CLOUDY    73  72  94 NE7       29.88F
JANESVILLE     RAIN      73  72  94 MISG      29.88R
$$

WIZ051-052-058>065-066-070>072-220100-
SOUTHEAST WISCONSIN

CITY           SKY/WX    TMP DP  RH WIND       PRES   REMARKS
MILWAUKEE      LGT RAIN  74  70  87 SE5       29.92F
6HR MIN TEMP:  74; 6HR MAX TEMP:  83; 6HR PCP:  0.09;

WAUKESHA       RAIN      70  66  88 NE6       29.94F
MILWAUKEE/TIMM RAIN      72  68  88 SE3       29.94F
RACINE         CLOUDY    73  71  93 E6        29.94F
6HR MIN TEMP:  73; 6HR MAX TEMP:  82;

KENOSHA        CLOUDY    74  69  85 E7        29.93S
6HR MIN TEMP:  74; 6HR MAX TEMP:  85; 6HR PCP: TRACE;

FOND DU LAC    LGT RAIN  71  61  70 S12       29.90F
6HR MIN TEMP:  70; 6HR MAX TEMP:  81; 6HR PCP:  0.03;

SHEBOYGAN      LGT RAIN  75  74  96 SE3       29.91F FOG
6HR MIN TEMP:  75; 6HR MAX TEMP:  82; 6HR PCP:  0.02;

WEST BEND      LGT RAIN  70  68  94 S3        29.92F
JUNEAU         LGT RAIN  69  67  93 E5        29.92F
6HR MIN TEMP:  69; 6HR MAX TEMP:  79;

$$

LSZ147-162-220100-
LAKE SUPERIOR

STATION/POSITION TIME  TEMP    WIND        PRES    WAVE
                       AIR SEA DIR/SP/G            HT/PER
                 (UTC) (F)     (DEG/KT/KT) (MB)    (FT/S)
W MID LAKE BUOY  2250   54 49   80/ 10/ 10 1011.3F   0
DEVILS ISLAND    0000   63      60/  7/  7 1010.7S
SAXON HARBOR     2340   73      50/  4/  7 1010.2S
$$

LMZ867-665-643>646-220100-
LAKE MICHIGAN

STATION/POSITION TIME  TEMP    WIND        PRES    WAVE
                       AIR SEA DIR/SP/G            HT/PER
                 (UTC) (F)     (DEG/KT/KT) (MB)    (FT/S)
CHAMBERS ISLAND  2340   79     170/  4/  9 1011.2F
S GREEN BAY BUOY 2330   77 75  190/  4/  6 1012.3F
N MID LAKE BUOY  2350   70 67  150/  8/  8 1013.1F   0
NORTHPORT PIER   2340   77     160/  4/  9 1012.2F
KEWAUNEE LAKESHO 2342   70     180/  8/  9 1012.1F
SHEBOYGAN LAKESH 0000   71     160/ 11/ 12 1012.6F
PORT WASHINGTON  2330   72     180/  4/ 11 1014.2F
MILWAUKEE LAKESH 2350   71     1



USA.gov is the U.S. government's official web portal to all federal, state and local government web resources and services.